LOT269 EPWA-EHAM

Flight info

Callsign LOT269
Flight time N/A
Altitude 38000
Route LOLSI T174 INDIG DCT GOVEN DCT NORKU
Aircraft E195/M-SDE3GILORVW/S

Departure

Time 2026-05-04 13:44
Airport Warsaw Chopin Airport (EPWA)

Arrival

Time N/A
Airport Amsterdam Airport Schiphol (EHAM)
Time Latitude Longitude Altitude Speed Heading
2026-05-04 13:20 52.17000 20.97145 365 ft 0 kts 70°
2026-05-04 13:33 52.16994 20.97118 333 ft 4 kts 70°
2026-05-04 13:34 52.16985 20.97078 332 ft 3 kts 70°
2026-05-04 13:34 52.16979 20.97050 333 ft 3 kts 62°
2026-05-04 13:34 52.16973 20.97015 333 ft 4 kts 117°
2026-05-04 13:34 52.16990 20.96987 332 ft 4 kts 151°
2026-05-04 13:35 52.17012 20.96968 332 ft 2 kts 152°
2026-05-04 13:35 52.17014 20.96966 332 ft 0 kts 152°
2026-05-04 13:38 52.17000 20.96978 335 ft 6 kts 152°
2026-05-04 13:38 52.16935 20.97034 337 ft 15 kts 152°
2026-05-04 13:39 52.16839 20.97119 337 ft 16 kts 152°
2026-05-04 13:39 52.16741 20.97203 336 ft 16 kts 151°
2026-05-04 13:39 52.16643 20.97288 337 ft 16 kts 152°
2026-05-04 13:39 52.16564 20.97405 336 ft 16 kts 114°
2026-05-04 13:40 52.16519 20.97569 334 ft 16 kts 115°
2026-05-04 13:40 52.16472 20.97732 336 ft 16 kts 115°
2026-05-04 13:40 52.16425 20.97897 336 ft 16 kts 115°
2026-05-04 13:40 52.16377 20.98065 336 ft 16 kts 114°
2026-05-04 13:41 52.16330 20.98236 337 ft 17 kts 114°
2026-05-04 13:41 52.16282 20.98406 336 ft 17 kts 115°
2026-05-04 13:41 52.16204 20.98450 337 ft 11 kts 204°
2026-05-04 13:42 52.16183 20.98434 337 ft 0 kts 205°
2026-05-04 13:42 52.16161 20.98417 336 ft 8 kts 205°
2026-05-04 13:42 52.16122 20.98336 336 ft 10 kts 270°
2026-05-04 13:43 52.16134 20.98282 332 ft 0 kts 294°
2026-05-04 13:43 52.16189 20.98084 336 ft 54 kts 294°
2026-05-04 13:43 52.16449 20.97151 335 ft 126 kts 294°
2026-05-04 13:43 52.16888 20.95572 522 ft 170 kts 290°
2026-05-04 13:44 52.17376 20.93769 1343 ft 176 kts 290°
2026-05-04 13:44 52.17899 20.91829 2021 ft 197 kts 291°
2026-05-04 13:44 52.18308 20.89586 2694 ft 217 kts 270°
2026-05-04 13:44 52.18184 20.87106 3838 ft 220 kts 262°
2026-05-04 13:45 52.18021 20.84576 4906 ft 227 kts 264°
2026-05-04 13:45 52.18100 20.81996 6002 ft 229 kts 278°
2026-05-04 13:45 52.18438 20.79445 7067 ft 231 kts 281°
2026-05-04 13:45 52.18819 20.76871 8092 ft 237 kts 281°
2026-05-04 13:46 52.19218 20.74096 8687 ft 266 kts 282°
2026-05-04 13:46 52.19588 20.71102 9798 ft 273 kts 271°
2026-05-04 13:46 52.19289 20.68028 10584 ft 289 kts 246°
2026-05-04 13:46 52.18089 20.65376 11592 ft 298 kts 221°
2026-05-04 13:47 52.16235 20.63807 12721 ft 307 kts 197°
2026-05-04 13:47 52.14073 20.63661 13829 ft 320 kts 174°
2026-05-04 13:47 52.11872 20.64345 14769 ft 322 kts 181°
2026-05-04 13:47 52.09712 20.63727 15690 ft 315 kts 208°
2026-05-04 13:48 52.08035 20.61505 16606 ft 314 kts 236°
2026-05-04 13:48 52.07242 20.58211 17496 ft 319 kts 262°
2026-05-04 13:48 52.07535 20.54621 18317 ft 330 kts 289°
2026-05-04 13:48 52.08723 20.51369 19037 ft 340 kts 302°
2026-05-04 13:49 52.10229 20.48366 19706 ft 345 kts 307°
2026-05-04 13:49 52.11768 20.45347 20341 ft 348 kts 304°
2026-05-04 13:49 52.13142 20.42094 20939 ft 350 kts 297°
2026-05-04 13:49 52.14211 20.38596 21502 ft 352 kts 290°
2026-05-04 13:50 52.14944 20.34789 22039 ft 354 kts 281°
2026-05-04 13:50 52.15342 20.30814 22578 ft 358 kts 277°
2026-05-04 13:50 52.15672 20.26770 23103 ft 363 kts 277°
2026-05-04 13:50 52.15965 20.22666 23606 ft 367 kts 276°
2026-05-04 13:51 52.16218 20.18514 24101 ft 370 kts 275°
2026-05-04 13:51 52.16457 20.14328 24616 ft 372 kts 275°
2026-05-04 13:51 52.16677 20.10106 25146 ft 374 kts 274°
2026-05-04 13:51 52.16885 20.05873 25660 ft 377 kts 274°
2026-05-04 13:52 52.17283 19.97315 26647 ft 381 kts 273°
2026-05-04 13:52 52.17477 19.93005 27128 ft 382 kts 273°
2026-05-04 13:52 52.17661 19.88664 27571 ft 384 kts 271°
2026-05-04 13:53 52.17501 19.84320 28009 ft 385 kts 262°
2026-05-04 13:53 52.17115 19.79996 28437 ft 387 kts 261°
2026-05-04 13:53 52.16732 19.75644 28872 ft 389 kts 261°
2026-05-04 13:54 52.15951 19.66890 29706 ft 392 kts 261°
2026-05-04 13:54 52.15554 19.62479 30090 ft 394 kts 261°
2026-05-04 13:54 52.14754 19.53656 30731 ft 398 kts 261°
2026-05-04 13:55 52.14348 19.49202 31048 ft 399 kts 261°
2026-05-04 13:55 52.13522 19.40227 31614 ft 402 kts 261°
2026-05-04 13:55 52.13105 19.35716 31829 ft 405 kts 261°
2026-05-04 13:56 52.12680 19.31173 32069 ft 406 kts 261°
2026-05-04 13:56 52.12254 19.26619 32368 ft 406 kts 261°
2026-05-04 13:56 52.11400 19.17565 33049 ft 403 kts 261°
2026-05-04 13:57 52.10973 19.13051 33384 ft 402 kts 261°
2026-05-04 13:57 52.10544 19.08565 33709 ft 401 kts 261°
2026-05-04 13:58 52.09254 18.95148 34506 ft 398 kts 261°
2026-05-04 13:58 52.08390 18.86248 34924 ft 398 kts 261°
2026-05-04 13:58 52.07962 18.81860 35120 ft 398 kts 261°
2026-05-04 13:59 52.07526 18.77411 35328 ft 398 kts 261°
2026-05-04 13:59 52.07090 18.72967 35523 ft 398 kts 261°
2026-05-04 13:59 52.06211 18.64084 36033 ft 395 kts 261°
2026-05-04 14:00 52.05768 18.59640 36025 ft 401 kts 261°
2026-05-04 14:00 52.04398 18.45962 36062 ft 416 kts 261°
2026-05-04 14:01 52.03455 18.36637 35939 ft 418 kts 261°
2026-05-04 14:02 52.02028 18.22713 35931 ft 419 kts 260°
2026-05-04 14:02 52.01063 18.13389 35933 ft 419 kts 260°
2026-05-04 14:03 52.00096 18.04052 35929 ft 419 kts 261°
2026-05-04 14:03 51.99810 17.94629 35933 ft 419 kts 272°
2026-05-04 14:04 52.00256 17.80508 35924 ft 415 kts 272°
2026-05-04 14:04 52.00543 17.71133 35931 ft 415 kts 272°
2026-05-04 14:05 52.00962 17.57116 35934 ft 416 kts 271°
2026-05-04 14:06 52.01233 17.47732 35935 ft 416 kts 271°
2026-05-04 14:06 52.01498 17.38356 35952 ft 416 kts 271°
2026-05-04 14:07 52.01754 17.29061 35935 ft 411 kts 271°
2026-05-04 14:07 52.02004 17.19782 35938 ft 411 kts 271°
2026-05-04 14:08 52.02249 17.10499 35935 ft 411 kts 271°
2026-05-04 14:08 52.02483 17.01268 35938 ft 411 kts 271°
2026-05-04 14:09 52.02815 16.87329 35944 ft 412 kts 271°
2026-05-04 14:10 52.03144 16.73358 35937 ft 413 kts 271°
2026-05-04 14:10 52.03358 16.64033 35939 ft 413 kts 271°
2026-05-04 14:11 52.03564 16.54693 35941 ft 414 kts 271°
2026-05-04 14:11 52.03861 16.40679 35943 ft 414 kts 271°
2026-05-04 14:12 52.04056 16.31411 35949 ft 413 kts 270°
2026-05-04 14:13 52.04316 16.17419 35940 ft 413 kts 270°
2026-05-04 14:13 52.04481 16.08094 35941 ft 413 kts 270°
2026-05-04 14:14 52.04650 15.98762 35943 ft 413 kts 270°
2026-05-04 14:14 52.04873 15.84759 35963 ft 412 kts 270°
2026-05-04 14:15 52.05148 15.66200 35965 ft 411 kts 270°
2026-05-04 14:16 52.05341 15.52332 35959 ft 411 kts 270°
2026-05-04 14:17 52.05519 15.38395 35949 ft 411 kts 270°
2026-05-04 14:18 52.05671 15.24486 35943 ft 410 kts 269°
2026-05-04 14:19 52.05865 15.05939 35941 ft 410 kts 269°
2026-05-04 14:19 52.05937 14.96675 35942 ft 410 kts 269°
2026-05-04 14:20 52.06009 14.87465 35942 ft 410 kts 269°
2026-05-04 14:20 52.06074 14.78210 35941 ft 409 kts 269°
2026-05-04 14:21 52.06500 14.64359 35942 ft 410 kts 272°
2026-05-04 14:21 52.06948 14.55117 35941 ft 410 kts 273°
2026-05-04 14:22 52.07407 14.45866 35943 ft 410 kts 273°
2026-05-04 14:22 52.07864 14.36681 35944 ft 410 kts 273°
2026-05-04 14:23 52.08546 14.22813 35943 ft 410 kts 272°
2026-05-04 14:24 52.08995 14.13557 35939 ft 410 kts 272°
2026-05-04 14:24 52.09437 14.04311 35945 ft 410 kts 272°
2026-05-04 14:25 52.09871 13.95063 35944 ft 410 kts 272°
2026-05-04 14:25 52.10442 13.82760 35945 ft 409 kts 272°
2026-05-04 14:26 52.10859 13.73521 35940 ft 409 kts 272°
2026-05-04 14:26 52.11278 13.64349 35953 ft 409 kts 272°
2026-05-04 14:27 52.11686 13.55122 35959 ft 409 kts 272°
2026-05-04 14:27 52.12083 13.45897 35955 ft 408 kts 272°
2026-05-04 14:28 52.12472 13.36666 35957 ft 409 kts 271°
2026-05-04 14:28 52.12861 13.27435 35948 ft 408 kts 271°
2026-05-04 14:29 52.13610 13.08966 35943 ft 409 kts 271°
2026-05-04 14:30 52.13978 12.99736 35946 ft 409 kts 271°
2026-05-04 14:31 52.14530 12.85940 35937 ft 409 kts 271°
2026-05-04 14:32 52.15217 12.67507 35955 ft 408 kts 271°
2026-05-04 14:32 52.15573 12.58287 35955 ft 408 kts 271°
2026-05-04 14:33 52.15888 12.49048 35954 ft 408 kts 271°
2026-05-04 14:33 52.16196 12.39882 35960 ft 408 kts 271°
2026-05-04 14:34 52.16512 12.30661 35957 ft 406 kts 271°
2026-05-04 14:34 52.16829 12.21471 35966 ft 406 kts 271°
2026-05-04 14:35 52.17132 12.12270 35964 ft 406 kts 271°
2026-05-04 14:35 52.17420 12.03060 35965 ft 406 kts 271°
2026-05-04 14:36 52.17707 11.93862 35965 ft 406 kts 270°
2026-05-04 14:36 52.17990 11.84734 35958 ft 404 kts 270°
2026-05-04 14:37 52.18268 11.75590 35962 ft 404 kts 270°
2026-05-04 14:37 52.18514 11.66451 35976 ft 403 kts 270°
2026-05-04 14:38 52.18773 11.57301 35957 ft 405 kts 270°
2026-05-04 14:38 52.19014 11.48126 35964 ft 405 kts 270°
2026-05-04 14:39 52.19240 11.38922 35973 ft 406 kts 270°
2026-05-04 14:39 52.19475 11.29801 35958 ft 405 kts 270°
2026-05-04 14:40 52.19821 11.16039 35965 ft 405 kts 270°
2026-05-04 14:40 52.20038 11.06852 35966 ft 405 kts 270°
2026-05-04 14:41 52.20243 10.97669 35963 ft 405 kts 270°
2026-05-04 14:42 52.20647 10.79325 35967 ft 404 kts 269°
2026-05-04 14:42 52.20829 10.70162 35968 ft 404 kts 269°
2026-05-04 14:43 52.21002 10.61001 35967 ft 404 kts 269°
2026-05-04 14:43 52.21194 10.51905 35964 ft 404 kts 269°
2026-05-04 14:44 52.21360 10.42738 35967 ft 404 kts 269°
2026-05-04 14:44 52.21534 10.33573 35973 ft 404 kts 268°
2026-05-04 14:45 52.21671 10.24405 35962 ft 405 kts 269°
2026-05-04 14:45 52.21818 10.15225 35961 ft 405 kts 268°
2026-05-04 14:46 52.21955 10.06052 35959 ft 404 kts 268°
2026-05-04 14:46 52.22093 9.96881 35960 ft 405 kts 269°
2026-05-04 14:47 52.22221 9.87709 35955 ft 406 kts 268°
2026-05-04 14:47 52.22339 9.78506 35965 ft 405 kts 268°
2026-05-04 14:48 52.22444 9.69311 35959 ft 406 kts 268°
2026-05-04 14:48 52.22540 9.60103 35964 ft 406 kts 268°
2026-05-04 14:49 52.22643 9.50956 35944 ft 406 kts 268°
2026-05-04 14:49 52.22741 9.41762 35963 ft 406 kts 268°
2026-05-04 14:50 52.22811 9.32555 35968 ft 406 kts 268°
2026-05-04 14:50 52.22893 9.23352 35963 ft 406 kts 268°
2026-05-04 14:51 52.22988 9.14146 35981 ft 406 kts 268°
2026-05-04 14:51 52.23035 9.04938 35969 ft 405 kts 267°
2026-05-04 14:52 52.23065 8.95739 35959 ft 406 kts 268°
2026-05-04 14:52 52.23084 8.86536 35961 ft 406 kts 267°
2026-05-04 14:53 52.23136 8.77305 35964 ft 407 kts 267°
2026-05-04 14:53 52.23175 8.68127 35959 ft 407 kts 267°
2026-05-04 14:54 52.23203 8.58888 35957 ft 407 kts 267°
2026-05-04 14:54 52.23194 8.49656 35954 ft 407 kts 266°
2026-05-04 14:55 52.23213 8.40411 35964 ft 407 kts 267°
2026-05-04 14:55 52.23243 8.31211 35959 ft 408 kts 267°
2026-05-04 14:56 52.23222 8.21932 35954 ft 409 kts 266°
2026-05-04 14:56 52.23204 8.12634 35958 ft 410 kts 266°
2026-05-04 14:57 52.23205 8.03334 35968 ft 410 kts 266°
2026-05-04 14:57 52.23179 7.94031 35966 ft 410 kts 266°
2026-05-04 14:58 52.23160 7.84766 35967 ft 411 kts 266°
2026-05-04 14:58 52.23092 7.75428 35969 ft 412 kts 266°
2026-05-04 14:59 52.23060 7.66105 35526 ft 405 kts 265°
2026-05-04 14:59 52.22977 7.57277 34710 ft 379 kts 265°